DW8397 Weather Reports


Display with metric or nautical units.
time (UTC)temp
F
wind
direction
speed
MPH
gust
MPH
rain 1hr
in
rain 24hr
in
rain mn
in
humidity
%
barometer
mb
20260510233117 57 348 7.0 11.0 0.00 0.01 0.01 39 1013.3
20260510231601 58 273 6.0 12.0 0.00 0.01 0.01 40 1013.1
20260510230103 59 284 3.0 10.0 0.00 0.01 0.01 41 1013.0
20260510224555 59 265 2.0 16.0 0.00 0.01 0.01 41 1012.7
20260510223054 60 260 2.0 12.0 0.00 0.01 0.01 42 1012.6
20260510221552 60 310 3.0 10.0 0.00 0.01 0.01 42 1012.4
20260510220053 61 303 1.0 16.0 0.00 0.01 0.01 41 1012.2
20260510214550 61 341 6.0 17.0 0.00 0.01 0.01 39 1012.0
20260510213051 62 314 8.0 17.0 0.00 0.01 0.01 42 1011.9
20260510211547 61 355 7.0 18.0 0.00 0.01 0.01 51 1011.5
20260510210047 60 255 0.0 10.0 0.00 0.01 0.01 61 1011.4
20260510204550 60 224 2.0 12.0 0.00 0.02 0.01 61 1011.3
20260510203043 60 239 3.0 9.0 0.00 0.02 0.01 62 1011.3
20260510201544 60 199 6.0 22.0 0.00 0.02 0.01 61 1011.2
20260510200040 60 216 7.0 12.0 0.00 0.02 0.01 66 1011.3
20260510194542 59 157 4.0 10.0 0.00 0.05 0.01 70 1011.5
20260510193038 58 211 4.0 9.0 0.00 0.05 0.01 74 1011.8
20260510191533 56 208 1.0 9.0 0.00 0.05 0.01 80 1012.1
20260510190032 55 180 0.0 9.0 0.00 0.05 0.01 81 1012.2
20260510184531 55 285 0.0 8.0 0.00 0.09 0.01 84 1012.2
20260510183031 55 217 1.0 7.0 0.00 0.09 0.01 84 1012.3
20260510181535 55 241 0.0 0.0 0.00 0.09 0.01 86 1012.2
20260510180033 54 309 0.0 0.0 0.00 0.09 0.01 87 1012.1
20260510174530 54 311 0.0 0.0 0.00 0.15 0.01 87 1012.0
20260510173029 54 261 0.0 0.0 0.00 0.15 0.01 88 1012.1
20260510171529 54 246 0.0 0.0 0.00 0.15 0.01 88 1012.1
20260510170028 54 247 0.0 0.0 0.01 0.15 0.01 88 1012.1
20260510164539 54 263 0.0 0.0 0.01 0.21 0.01 87 1012.3
20260510163028 55 279 0.0 0.0 0.01 0.21 0.01 84 1012.4
20260510161526 56 283 0.0 8.0 0.01 0.21 0.01 79 1012.3
20260510160024 58 340 3.0 9.0 0.00 0.20 0.00 78 1011.9
20260510154540 58 288 5.0 13.0 0.00 0.26 0.00 80 1011.8
20260510153024 57 164 3.0 15.0 0.00 0.26 0.00 80 1011.7
20260510151519 58 210 2.0 8.0 0.00 0.26 0.00 81 1011.3
20260510150018 58 252 0.0 3.0 0.00 0.26 0.00 81 1011.2
20260510144523 58 194 0.0 4.0 0.00 0.30 0.00 79 1011.0
20260510143017 58 181 0.0 5.0 0.00 0.30 0.00 82 1010.8
20260510141512 57 210 0.0 4.0 0.00 0.30 0.00 90 1010.9
20260510140012 52 171 0.0 2.0 0.00 0.30 0.00 93 1011.0
20260510134504 51 190 0.0 4.0 0.00 0.30 0.00 93 1011.1
20260510133100 49 190 0.0 2.0 0.00 0.30 0.00 93 1011.1
20260510131557 48 188 0.0 5.0 0.00 0.30 0.00 94 1011.3
20260510130105 48 206 0.0 2.0 0.00 0.30 0.00 94 1011.4
20260510124559 48 204 0.0 0.0 0.00 0.30 0.00 94 1011.3
20260510123055 47 174 0.0 3.0 0.00 0.30 0.00 94 1010.9
20260510121549 46 137 0.0 0.0 0.00 0.30 0.00 94 1011.2
20260510120045 45 133 0.0 0.0 0.00 0.30 0.00 94 1011.2
20260510114545 45 132 0.0 0.0 0.00 0.30 0.00 94 1011.2
20260510113045 45 132 0.0 2.0 0.00 0.30 0.00 94 1011.2
20260510111539 44 107 0.0 0.0 0.00 0.30 0.00 94 1010.9
20260510110037 44 107 0.0 0.0 0.00 0.30 0.00 94 1010.8
20260510104537 44 107 0.0 0.0 0.00 0.30 0.00 94 1010.7
20260510103037 44 105 0.0 0.0 0.00 0.30 0.00 94 1010.5
20260510101532 43 105 0.0 0.0 0.00 0.30 0.00 94 1010.2
20260510100033 43 105 0.0 0.0 0.00 0.30 0.00 94 1009.9
20260510094532 44 105 0.0 0.0 0.00 0.30 0.00 94 1009.3
20260510093030 44 106 0.0 0.0 0.00 0.30 0.00 94 1009.2
20260510091531 44 106 0.0 0.0 0.00 0.30 0.00 94 1009.3
20260510090028 44 106 0.0 0.0 0.00 0.30 0.00 94 1009.2
20260510084525 45 106 0.0 0.0 0.00 0.30 0.00 94 1009.2
20260510083022 45 106 0.0 0.0 0.00 0.30 0.00 94 1009.6
20260510081520 45 106 0.0 0.0 0.00 0.30 0.00 94 1010.2
20260510080122 45 106 0.0 2.0 0.00 0.30 0.00 94 1010.0
20260510074520 45 58 0.0 0.0 0.00 0.30 0.00 94 1010.4
20260510073027 44 54 0.0 0.0 0.00 0.30 0.00 94 1010.2
20260510071518 44 54 0.0 0.0 0.00 0.30 0.00 94 1010.2
20260510070019 44 54 0.0 0.0 0.00 0.30 0.00 94 1010.2
20260510064536 45 54 0.0 0.0 0.00 0.30 0.00 94 1009.9
20260510063020 44 146 0.0 0.0 0.00 0.30 0.00 94 1010.3
20260510061516 44 146 0.0 0.0 0.00 0.30 0.00 94 1010.1
20260510060015 45 142 0.0 0.0 0.00 0.30 0.00 94 1010.0
20260510054515 45 142 0.0 0.0 0.00 0.30 0.00 94 1010.3
20260510053034 45 142 0.0 0.0 0.00 0.30 0.00 94 1010.1
20260510051513 45 142 0.0 0.0 0.00 0.30 0.00 94 1010.2
20260510050015 45 142 0.0 0.0 0.00 0.30 0.00 93 1010.2
20260510044511 45 142 0.0 0.0 0.00 0.30 0.00 93 1010.4
20260510043010 45 142 0.0 0.0 0.00 0.30 0.00 93 1010.6
20260510041509 45 142 0.0 4.0 0.00 0.30 0.00 93 1010.5
20260510040007 45 163 0.0 1.0 0.00 0.30 0.00 93 1010.5
20260510034507 45 157 0.0 4.0 0.00 0.30 0.30 93 1010.7
20260510033005 45 132 0.0 0.0 0.00 0.30 0.30 93 1010.6
20260510031504 45 148 0.0 4.0 0.00 0.30 0.30 93 1010.6
20260510030004 45 140 0.0 0.0 0.00 0.30 0.30 93 1010.8
20260510024504 45 134 0.0 3.0 0.00 0.30 0.30 93 1010.6
20260510023003 45 146 0.0 3.0 0.00 0.30 0.30 93 1010.8
20260510021502 45 148 0.0 0.0 0.00 0.30 0.30 93 1010.7
20260510020002 45 148 0.0 0.0 0.00 0.30 0.30 93 1011.1
20260510014502 45 148 0.0 0.0 0.00 0.30 0.30 93 1011.0
20260510013001 45 148 0.0 0.0 0.00 0.30 0.30 93 1011.0
20260510011503 45 148 0.0 1.0 0.00 0.30 0.30 93 1011.0
20260510010100 45 149 0.0 3.0 0.00 0.30 0.30 93 1011.0
20260510004600 44 117 0.0 2.0 0.00 0.30 0.30 93 1010.8
20260510003107 44 162 0.0 0.0 0.00 0.30 0.30 93 1010.8
20260510001600 44 162 0.0 0.0 0.00 0.30 0.30 93 1010.6
20260510000127 44 163 0.0 0.0 0.00 0.30 0.30 93 1010.5
20260509234558 44 153 0.0 0.0 0.00 0.30 0.30 93 1010.3